STARLINK-35781, 67110

Orbit data source: Space-Track

STARLINK-35781, 67110 is a payload satellite owned by SpaceX/Seattle (US) in LEO that was launched on Mon, 15 Dec 2025 UTC via an FALCON 9 launch vehicle from the Air Force Eastern Test Range (AFETR). Payload-class satellites include a variety of spacecraft equipped with specific instruments for various scientific and technological missions. These include communications satellites like Starlink; space stations such as the ISS; scientific satellites like the Hubble; Earth observation satellites from companies like Planet Labs, Umbra, and HawkEye 360; GPS; miniature CubeSats for education and research; and military/defense satellites.

Not visible in the next 10 days
Identifier
67110, 2025-299J
Orbit
LEO
Country
Flag of USUS
Related business
Manufacturer
SpaceX/Seattle
Mission
Operational spacecraft
Bus & Motor
STARLINK V2MO, Unknown motor
Mass
575 kg wet, ~530 kg dry
Launch date (UTC)
2025-12-15 (1 week ago)
Launch vehicle
FALCON 9
Launch site
Air Force Eastern Test Range (AFETR)
Object type
Payload
Rocket body
Debris
Shape & HBR
Unknown
Radar Cross Section
RCS unknown

Expand to show TLE details & history
Last TLE update: 9 hours ago

TLE from 9 hours ago
0 STARLINK-35781
1 67110U 25299J   25355.16668980 -.01441276  61325-3 -34042-2 0  9998
2 67110  42.9996 265.3216 0001748 272.5359 300.0012 15.95948446  2119
Epoch: 2025-12-21T04:00Z
TLE epoch observation values (Epoch: 2025-12-21T04:00:01.998Z)
Latitude
-21.67262°
Longitude
-39.59845°
Altitude
290.057 km
Speed
7.735 km/s
True Right ascension
07h 21m 34s
True Declination
-21° 32' 48"
Sunlit
Object was in full shadow at epoch
Visualization orbit readout
Latitude
Unknown
Longitude
Unknown
Altitude
Unknown
Speed
Unknown
Apparent Right ascension
Unknown
Apparent Declination
Unknown
Sunlit
N/A
Visualization observer readout
Local Sidereal Time
12:13:57
Azimuth
Unknown
Elevation
Unknown
Doppler factor
Unknown
Orbital elements
Apogee altitude
288.841 km
Perigee altitude
286.51 km
Semi-major axis
6,665.813 km
Eccentricity
0.00017
Inclination
42.9996°
RAAN
265.3216°
Arg. of periapsis
272.5359°
True anomaly
299.98385°
Mean anomaly
300.0012°
Eccentric anomaly
299.99253°
Mean motion
3.98808 °/min
Orbital period
90.27 mins
BSTAR
-0.0034042
Loading maneuver chart data...
Computing Atmospheric mass density...
Loading historical data...
Loading historical data...
Loading historical data...
Loading historical data...
Loading historical data...
Loading historical data...
Loading historical data...

Documentation

Showing up to 5 results
|